H1 CPF 2 NER 2022 12 15 9 349 01 glonass138 H2 1805301 9138 43508 2022 12 15 0 0 0 2022 12 18 23 45 0 900 1 1 0 0 0 1 H9 10 0 59928 0.00000 0 11358187.883 16321891.735 16001901.365 10 0 59928 900.00000 0 9617234.606 15129649.772 18166293.908 10 0 59928 1800.00000 0 7575543.583 13957377.666 19978457.479 10 0 59928 2700.00000 0 5270177.048 12859853.277 21403208.785 10 0 59928 3600.00000 0 2748948.213 11885142.596 22412854.547 10 0 59928 4500.00000 0 68690.232 11072575.331 22987729.566 10 0 59928 5400.00000 0 -2706852.013 10451104.011 23116581.693 10 0 59928 6300.00000 0 -5509421.512 10038115.203 22796796.252 10 0 59928 7200.00000 0 -8268841.878 9838742.819 22034455.190 10 0 59928 8100.00000 0 -10915697.059 9845712.524 20844229.276 10 0 59928 9000.00000 0 -13383987.800 10039724.292 19249104.532 10 0 59928 9900.00000 0 -15613655.146 10390357.643 17279947.222 10 0 59928 10800.00000 0 -17552866.480 10857462.094 14974914.698 10 0 59928 11700.00000 0 -19159968.969 11392974.867 12378722.489 10 0 59928 12600.00000 0 -20405028.732 11943089.543 9541781.010 10 0 59928 13500.00000 0 -21270891.189 12450684.217 6519218.033 10 0 59928 14400.00000 0 -21753717.892 12857906.227 3369805.676 10 0 59928 15300.00000 0 -21862977.125 13108803.509 154812.965 10 0 59928 16200.00000 0 -21620888.728 13151890.185 -3063193.173 10 0 59928 17100.00000 0 -21061346.807 12942536.500 -6221574.352 10 0 59928 18000.00000 0 -20228366.275 12445080.492 -9258849.563 10 0 59928 18900.00000 0 -19174119.618 11634570.563 -12115901.368 10 0 59928 19800.00000 0 -17956647.658 10498063.790 -14737134.874 10 0 59928 20700.00000 0 -16637342.048 9035423.938 -17071565.937 10 0 59928 21600.00000 0 -15278306.647 7259584.402 -19073816.796 10 0 59928 22500.00000 0 -13939709.853 5196264.186 -20704999.483 10 0 59928 23400.00000 0 -12677240.000 2883148.245 -21933469.783 10 0 59928 24300.00000 0 -11539771.055 368566.114 -22735437.498 10 0 59928 25200.00000 0 -10567336.567 -2290276.270 -23095421.752 10 0 59928 26100.00000 0 -9789496.431 -5029437.902 -23006543.246 10 0 59928 27000.00000 0 -9224164.097 -7780668.273 -22470648.636 10 0 59928 27900.00000 0 -8876942.266 -10474016.576 -21498265.419 10 0 59928 28800.00000 0 -8740993.644 -13040516.430 -20108388.918 10 0 59928 29700.00000 0 -8797450.814 -15414835.208 -18328106.026 10 0 59928 30600.00000 0 -9016346.679 -17537778.667 -16192063.393 10 0 59928 31500.00000 0 -9358025.249 -19358547.592 -13741790.572 10 0 59928 32400.00000 0 -9774972.457 -20836653.702 -11024891.336 10 0 59928 33300.00000 0 -10213989.233 -21943416.215 -8094118.765 10 0 59928 34200.00000 0 -10618614.798 -22662977.820 -5006352.018 10 0 59928 35100.00000 0 -10931697.722 -22992798.935 -1821494.478 10 0 59928 36000.00000 0 -11098006.174 -22943610.759 1398685.503 10 0 59928 36900.00000 0 -11066767.172 -22538830.094 4591748.854 10 0 59928 37800.00000 0 -10794027.697 -21813461.405 7695792.047 10 0 59928 38700.00000 0 -10244737.944 -20812532.771 10650642.232 10 0 59928 39600.00000 0 -9394468.731 -19589131.768 13399018.247 10 0 59928 40500.00000 0 -8230690.290 -18202123.810 15887635.423 10 0 59928 41400.00000 0 -6753557.958 -16713648.559 18068233.227 10 0 59928 42300.00000 0 -4976170.856 -15186499.019 19898506.304 10 0 59928 43200.00000 0 -2924291.386 -13681492.675 21342921.456 10 0 59928 44100.00000 0 -635535.742 -12254944.126 22373405.263 10 0 59928 45000.00000 0 1841932.474 -10956344.450 22969889.393 10 0 59928 45900.00000 0 4451152.974 -9826343.767 23120703.279 10 0 59928 46800.00000 0 7128492.857 -8895120.991 22822806.554 10 0 59928 47700.00000 0 9806057.433 -8181208.710 22081856.397 10 0 59928 48600.00000 0 12414289.161 -7690822.271 20912107.935 10 0 59928 49500.00000 0 14884648.008 -7417721.299 19336148.746 10 0 59928 50400.00000 0 17152262.598 -7343609.686 17384471.629 10 0 59928 51300.00000 0 19158442.358 -7439057.574 15094892.794 10 0 59928 52200.00000 0 20852946.166 -7664906.828 12511825.694 10 0 59928 53100.00000 0 22195912.572 -7974101.012 9685423.763 10 0 59928 54000.00000 0 23159370.566 -8313862.596 6670608.054 10 0 59928 54900.00000 0 23728267.156 -8628125.124 3525998.416 10 0 59928 55800.00000 0 23900968.135 -8860116.852 312769.199 10 0 59928 56700.00000 0 23689210.757 -8954985.513 -2906547.785 10 0 59928 57600.00000 0 23117510.219 -8862351.844 -6069288.917 10 0 59928 58500.00000 0 22222045.154 -8538682.294 -9113888.048 10 0 59928 59400.00000 0 21049069.638 -7949378.925 -11981084.378 10 0 59928 60300.00000 0 19652919.363 -7070496.588 -14615084.316 10 0 59928 61200.00000 0 18093696.909 -5890013.380 -16964653.690 10 0 59928 62100.00000 0 16434734.574 -4408599.579 -18984118.440 10 0 59928 63000.00000 0 14739942.345 -2639851.613 -20634253.985 10 0 59928 63900.00000 0 13071153.230 -609980.512 -21883045.923 10 0 59928 64800.00000 0 11485577.728 1643032.686 -22706307.659 10 0 59928 65700.00000 0 10033474.186 4070779.638 -23088143.531 10 0 59928 66600.00000 0 8756132.282 6616209.618 -23021249.203 10 0 59928 67500.00000 0 7684253.209 9215782.501 -22507044.313 10 0 59928 68400.00000 0 6836793.187 11801900.398 -21555635.641 10 0 59928 69300.00000 0 6220317.307 14305517.009 -20185612.180 10 0 59928 70200.00000 0 5828889.149 16658816.611 -18423676.691 10 0 59928 71100.00000 0 5644499.138 18797851.896 -16304121.209 10 0 59928 72000.00000 0 5638012.176 20665031.485 -13868156.950 10 0 59928 72900.00000 0 5770593.293 22211354.454 -11163111.666 10 0 59928 73800.00000 0 5995550.240 23398299.690 -8241509.961 10 0 59928 74700.00000 0 6260514.575 24199292.183 -5160054.386 10 0 59928 75600.00000 0 6509868.659 24600686.073 -1978526.928 10 0 59928 76500.00000 0 6687315.829 24602224.310 1241367.956 10 0 59928 77400.00000 0 6738485.055 24216956.556 4437196.377 10 0 59928 78300.00000 0 6613460.036 23470619.531 7547001.194 10 0 59928 79200.00000 0 6269125.880 22400506.330 10510498.170 10 0 59928 80100.00000 0 5671234.263 21053872.404 13270239.116 10 0 59928 81000.00000 0 4796099.698 19485945.158 15772719.891 10 0 59928 81900.00000 0 3631854.969 17757620.325 17969412.251 10 0 59928 82800.00000 0 2179212.184 15932941.258 19817700.000 10 0 59928 83700.00000 0 451696.384 14076466.036 21281701.902 10 0 59928 84600.00000 0 -1524659.502 12250631.743 22332965.957 10 0 59928 85500.00000 0 -3712147.232 10513225.366 22951021.912 10 0 59929 0.00000 0 -6062710.227 8915066.295 23123781.629 10 0 59929 900.00000 0 -8519712.883 7497995.675 22847779.512 10 0 59929 1800.00000 0 -11020077.145 6293258.197 22128247.919 10 0 59929 2700.00000 0 -13496703.399 5320340.640 20979025.839 10 0 59929 3600.00000 0 -15881073.253 4586317.719 19422301.425 10 0 59929 4500.00000 0 -18105928.142 4085731.675 17488192.543 10 0 59929 5400.00000 0 -20107912.660 3801010.839 15214172.354 10 0 59929 6300.00000 0 -21830072.666 3703409.618 12644349.954 10 0 59929 7200.00000 0 -23224103.626 3754430.413 9828619.206 10 0 59929 8100.00000 0 -24252254.767 3907667.362 6821691.653 10 0 59929 9000.00000 0 -24888808.627 4110993.737 3682031.962 10 0 59929 9900.00000 0 -25121073.188 4308999.890 470716.835 10 0 59929 10800.00000 0 -24949844.305 4445577.672 -2749759.995 10 0 59929 11700.00000 0 -24389318.533 4466540.674 -5916712.602 10 0 59929 12600.00000 0 -23466459.830 4322167.939 -8968492.584 10 0 59929 13500.00000 0 -22219846.948 3969561.855 -11845698.583 10 0 59929 14400.00000 0 -20698050.475 3374718.922 -14492340.986 10 0 59929 15300.00000 0 -18957608.515 2514224.341 -16856938.093 10 0 59929 16200.00000 0 -17060686.970 1376497.581 -18893521.777 10 0 59929 17100.00000 0 -15072523.521 -37464.724 -20562532.742 10 0 59929 18000.00000 0 -13058763.336 -1713880.626 -21831587.892 10 0 59929 18900.00000 0 -11082798.615 -3626518.881 -22676105.279 10 0 59929 19800.00000 0 -9203223.457 -5737565.512 -23079775.032 10 0 59929 20700.00000 0 -7471510.286 -7998984.919 -23034867.880 10 0 59929 21600.00000 0 -5930004.188 -10354318.947 -22542376.116 10 0 59929 22500.00000 0 -4610317.863 -12740849.084 -21611985.057 10 0 59929 23400.00000 0 -3532192.838 -15092031.844 -20261876.276 10 0 59929 24300.00000 0 -2702872.826 -17340106.231 -18518366.978 10 0 59929 25200.00000 0 -2117013.638 -19418765.111 -16415392.914 10 0 59929 26100.00000 0 -1757131.596 -21265779.646 -13993845.081 10 0 59929 27000.00000 0 -1594569.931 -22825468.071 -11300773.184 10 0 59929 27900.00000 0 -1590941.019 -24050906.520 -8388471.227 10 0 59929 28800.00000 0 -1699982.574 -24905790.315 -5313462.977 10 0 59929 29700.00000 0 -1869748.641 -25365868.750 -2135406.815 10 0 59929 30600.00000 0 -2045042.307 -25419894.081 1084058.920 10 0 59929 31500.00000 0 -2169987.090 -25070045.667 4282507.768 10 0 59929 32400.00000 0 -2190628.194 -24331812.088 7397931.234 10 0 59929 33300.00000 0 -2057453.675 -23233336.568 10369935.978 10 0 59929 34200.00000 0 -1727729.040 -21814253.335 13140909.078 10 0 59929 35100.00000 0 -1167546.623 -20124063.666 15657129.185 10 0 59929 36000.00000 0 -353503.040 -18220119.338 17869802.527 10 0 59929 36900.00000 0 726066.386 -16165297.392 19736004.107 10 0 59929 37800.00000 0 2070348.983 -14025462.757 21219506.507 10 0 59929 38700.00000 0 3665844.020 -11866823.845 22291480.727 10 0 59929 39600.00000 0 5486690.197 -9753290.628 22931055.906 10 0 59929 40500.00000 0 7495519.326 -7743944.437 23125727.318 10 0 59929 41400.00000 0 9644802.469 -5890724.068 22871604.759 10 0 59929 42300.00000 0 11878634.170 -4236423.955 22173496.209 10 0 59929 43200.00000 0 14134882.264 -2813087.258 21044824.593 10 0 59929 44100.00000 0 16347615.221 -1640860.439 19507378.415 10 0 59929 45000.00000 0 18449707.057 -727356.975 17590900.105 10 0 59929 45900.00000 0 20375512.006 -67556.603 15332518.955 10 0 59929 46800.00000 0 22063497.687 355755.814 12776038.563 10 0 59929 47700.00000 0 23458726.592 571030.324 9971091.736 10 0 59929 48600.00000 0 24515081.605 616511.489 6972178.645 10 0 59929 49500.00000 0 25197141.552 538378.723 3837606.557 10 0 59929 50400.00000 0 25481627.122 388546.478 628351.954 10 0 59929 51300.00000 0 25358355.525 222218.244 -2593132.357 10 0 59929 52200.00000 0 24830662.928 95299.023 -5764141.203 10 0 59929 53100.00000 0 23915276.325 61777.192 -8822947.061 10 0 59929 54000.00000 0 22641639.953 171188.137 -11710011.135 10 0 59929 54900.00000 0 21050724.660 466268.549 -14369150.796 10 0 59929 55800.00000 0 19193370.634 980902.106 -16748639.632 10 0 59929 56700.00000 0 17128233.704 1738444.636 -18802218.047 10 0 59929 57600.00000 0 14919422.027 2750500.625 -20489994.380 10 0 59929 58500.00000 0 12633922.945 4016203.440 -21779218.935 10 0 59929 59400.00000 0 10338928.175 5522030.235 -22644916.219 10 0 59929 60300.00000 0 8099169.376 7242159.745 -23070363.665 10 0 59929 61200.00000 0 5974375.269 9139358.252 -23047408.248 10 0 59929 62100.00000 0 4016955.888 11166356.801 -22576615.706 10 0 59929 63000.00000 0 2270009.520 13267662.280 -21667250.273 10 0 59929 63900.00000 0 765734.225 15381726.814 -20337086.021 10 0 59929 64800.00000 0 -475691.498 17443385.154 -18612054.075 10 0 59929 65700.00000 0 -1446714.031 19386458.629 -16525732.904 10 0 59929 66600.00000 0 -2152472.529 21146417.307 -14118691.851 10 0 59929 67500.00000 0 -2610328.530 22662989.692 -11437700.709 10 0 59929 68400.00000 0 -2848878.790 23882611.460 -8534820.637 10 0 59929 69300.00000 0 -2906494.372 24760611.387 -5466394.033 10 0 59929 70200.00000 0 -2829448.735 25263043.610 -2291952.814 10 0 59929 71100.00000 0 -2669714.673 25368090.081 926933.865 10 0 59929 72000.00000 0 -2482523.673 25066974.915 4127850.160 10 0 59929 72900.00000 0 -2323791.075 24364352.737 7248739.461 10 0 59929 73800.00000 0 -2247515.987 23278154.967 10229102.526 10 0 59929 74700.00000 0 -2303265.744 21838900.557 13011164.788 10 0 59929 75600.00000 0 -2533851.140 20088499.903 15540990.626 10 0 59929 76500.00000 0 -2973290.582 18078601.580 17769523.461 10 0 59929 77400.00000 0 -3645149.203 15868550.486 19653531.990 10 0 59929 78300.00000 0 -4561323.314 13523041.871 21156444.827 10 0 59929 79200.00000 0 -5721322.131 11109568.179 22249057.904 10 0 59929 80100.00000 0 -7112078.003 8695764.143 22910101.330 10 0 59929 81000.00000 0 -8708294.510 6346759.634 23126654.998 10 0 59929 81900.00000 0 -10473319.563 4122649.397 22894404.896 10 0 59929 82800.00000 0 -12360508.732 2076184.138 22217734.883 10 0 59929 83700.00000 0 -14315023.633 250778.258 21109651.598 10 0 59929 84600.00000 0 -16275991.961 -1321083.391 19591543.140 10 0 59929 85500.00000 0 -18178940.265 -2618973.678 17692775.212 10 0 59930 0.00000 0 -19958398.701 -3635139.466 15450131.661 10 0 59930 900.00000 0 -21550570.344 -4374580.901 12907107.931 10 0 59930 1800.00000 0 -22895951.000 -4854589.313 10113073.350 10 0 59930 2700.00000 0 -23941792.608 -5103765.249 7122313.813 10 0 59930 3600.00000 0 -24644303.691 -5160556.970 3992976.080 10 0 59930 4500.00000 0 -24970494.394 -5071382.258 785933.217 10 0 59930 5400.00000 0 -24899587.279 -4888413.619 -2436406.152 10 0 59930 6300.00000 0 -24423933.404 -4667121.647 -5611320.836 10 0 59930 7200.00000 0 -23549394.186 -4463681.783 -8677007.378 10 0 59930 8100.00000 0 -22295172.304 -4332355.729 -11573792.638 10 0 59930 9000.00000 0 -20693098.373 -4322959.832 -14245303.928 10 0 59930 9900.00000 0 -18786403.351 -4478529.001 -16639572.876 10 0 59930 10800.00000 0 -16628028.486 -4833276.238 -18710050.870 10 0 59930 11700.00000 0 -14278544.063 -5410935.028 -20416515.956 10 0 59930 12600.00000 0 -11803764.694 -6223555.356 -21725853.446 10 0 59930 13500.00000 0 -9272161.298 -7270804.635 -22612695.387 10 0 59930 14400.00000 0 -6752178.091 -8539803.317 -23059907.033 10 0 59930 15300.00000 0 -4309566.530 -10005502.248 -23058911.577 10 0 59930 16200.00000 0 -2004846.933 -11631586.013 -22609847.670 10 0 59930 17100.00000 0 108997.343 -13371864.442 -21721557.477 10 0 59930 18000.00000 0 1988498.194 -15172094.016 -20411406.209 10 0 59930 18900.00000 0 3601272.682 -16972153.037 -18704937.232 10 0 59930 19800.00000 0 4927120.911 -18708479.750 -16635369.808 10 0 59930 20700.00000 0 5958607.923 -20316671.598 -14242949.494 10 0 59930 21600.00000 0 6701107.320 -21734137.213 -11574163.896 10 0 59930 22500.00000 0 7172306.765 -22902690.508 -8680838.948 10 0 59930 23400.00000 0 7401197.816 -23770978.626 -5619133.227 10 0 59930 24300.00000 0 7426594.113 -24296642.449 -2448449.700 10 0 59930 25200.00000 0 7295241.494 -24448119.493 769714.146 10 0 59930 26100.00000 0 7059600.579 -24206013.905 3972955.546 10 0 59930 27000.00000 0 6775395.925 -23563976.345 7099172.180 10 0 59930 27900.00000 0 6499035.510 -22529056.911 10087761.233 10 0 59930 28800.00000 0 6285009.564 -21121516.263 12880788.724 10 0 59930 29700.00000 0 6183378.485 -19374102.554 15424106.851 10 0 59930 30600.00000 0 6237455.775 -17330823.878 17668398.151 10 0 59930 31500.00000 0 6481783.651 -15045266.906 19570126.720 10 0 59930 32400.00000 0 6940486.753 -12578530.934 21092378.651 10 0 59930 33300.00000 0 7626073.627 -9996862.426 22205575.973 10 0 59930 34200.00000 0 8538737.031 -7369087.416 22888050.625 10 0 59930 35100.00000 0 9666183.468 -4763947.417 23126467.668 10 0 59930 36000.00000 0 10984000.393 -2247448.364 22916089.530 10 0 59930 36900.00000 0 12456547.226 119668.179 22260875.903 10 0 59930 37800.00000 0 14038334.494 2284227.392 21173416.842 10 0 59930 38700.00000 0 15675834.997 4202602.151 19674699.499 10 0 59930 39600.00000 0 17309652.597 5842290.542 17793712.072 10 0 59930 40500.00000 0 18876958.952 7183024.605 15566891.538 10 0 59930 41400.00000 0 20314096.874 8217364.269 13037424.768 10 0 59930 42300.00000 0 21559241.338 8950751.809 10254415.753 10 0 59930 43200.00000 0 22555006.294 9401024.811 7271934.371 10 0 59930 44100.00000 0 23250887.079 9597408.522 4147964.878 10 0 59930 45000.00000 0 23605434.713 9579030.500 943274.668 10 0 59930 45900.00000 0 23588069.352 9393021.035 -2279774.282 10 0 59930 46800.00000 0 23180455.249 9092280.583 -5458447.369 10 0 59930 47700.00000 0 22377378.061 8733009.812 -8530867.881 10 0 59930 48600.00000 0 21187086.547 8372108.113 -11437230.993 10 0 59930 49500.00000 0 19631083.453 8064552.134 -14120976.521 10 0 59930 50400.00000 0 17743373.984 7860866.578 -16529896.559 10 0 59930 51300.00000 0 15569203.254 7804795.498 -18617155.739 10 0 59930 52200.00000 0 13163335.729 7931273.512 -20342203.896 10 0 59930 53100.00000 0 10587949.048 8264783.309 -21671563.243 10 0 59930 54000.00000 0 7910230.536 8818169.210 -22579475.082 10 0 59930 54900.00000 0 5199776.914 9591956.935 -23048394.005 10 0 59930 55800.00000 0 2525905.744 10574208.190 -23069320.683 10 0 59930 56700.00000 0 -45009.786 11740916.053 -22641967.631 10 0 59930 57600.00000 0 -2452072.390 13056924.344 -21774755.526 10 0 59930 58500.00000 0 -4642154.146 14477332.188 -20484640.880 10 0 59930 59400.00000 0 -6571857.767 15949324.736 -18796779.004 10 0 59930 60300.00000 0 -8209065.685 17414353.230 -16744029.196 10 0 59930 61200.00000 0 -9534014.097 18810573.077 -14366312.040 10 0 59930 62100.00000 0 -10539849.160 20075437.810 -11709831.361 10 0 59930 63000.00000 0 -11232644.029 21148340.436 -8826175.914 10 0 59930 63900.00000 0 -11630877.839 21973191.568 -5771318.209 10 0 59930 64800.00000 0 -11764400.221 22500826.452 -2604529.776 10 0 59930 65700.00000 0 -11672926.275 22691140.099 612766.255 10 0 59930 66600.00000 0 -11404126.410 22514861.064 3818183.025 10 0 59930 67500.00000 0 -11011392.367 21954889.521 6949575.432 10 0 59930 68400.00000 0 -10551374.033 21007143.416 9946240.068 10 0 59930 69300.00000 0 -10081391.176 19680876.996 12750086.519 10 0 59930 70200.00000 0 -9656829.217 17998457.992 15306757.733 10 0 59930 71100.00000 0 -9328628.738 15994612.069 17566678.198 10 0 59930 72000.00000 0 -9140974.313 13715165.385 19486010.094 10 0 59930 72900.00000 0 -9129279.898 11215336.639 21027499.484 10 0 59930 73800.00000 0 -9318555.571 8557648.591 22161196.723 10 0 59930 74700.00000 0 -9722224.562 5809544.746 22865037.500 10 0 59930 75600.00000 0 -10341440.815 3040808.893 23125273.586 10 0 59930 76500.00000 0 -11164936.604 320893.399 22936744.965 10 0 59930 77400.00000 0 -12169407.673 -2283733.958 22302987.806 10 0 59930 78300.00000 0 -13320421.106 -4712115.512 21236175.688 10 0 59930 79200.00000 0 -14573809.242 -6911097.532 19756894.389 10 0 59930 80100.00000 0 -15877492.514 -8837297.510 17893753.631 10 0 59930 81000.00000 0 -17173655.908 -10458663.472 15682842.235 10 0 59930 81900.00000 0 -18401188.534 -11755560.547 13167036.129 10 0 59930 82800.00000 0 -19498284.216 -12721339.502 10395171.764 10 0 59930 83700.00000 0 -20405093.728 -13362363.645 7421100.292 10 0 59930 84600.00000 0 -21066316.580 -13697493.216 4302640.496 10 0 59930 85500.00000 0 -21433622.253 -13757049.294 1100450.950 10 0 59931 0.00000 0 -21467797.656 -13581301.558 -2123155.964 10 0 59931 900.00000 0 -21140528.835 -13218544.421 -5305436.127 10 0 59931 1800.00000 0 -20435740.404 -12722844.115 -8384442.589 10 0 59931 2700.00000 0 -19350434.997 -12151552.964 -11300242.119 10 0 59931 3600.00000 0 -17894996.120 -11562697.442 -13996090.223 10 0 59931 4500.00000 0 -16092940.932 -11012351.766 -16419542.466 10 0 59931 5400.00000 0 -13980132.811 -10552109.263 -18523479.473 10 0 59931 6300.00000 0 -11603486.436 -10226759.324 -20267025.251 10 0 59931 7200.00000 0 -9019219.689 -10072268.696 -21616340.844 10 0 59931 8100.00000 0 -6290725.517 -10114152.665 -22545278.203 10 0 59931 9000.00000 0 -3486152.644 -10366304.788 -23035882.077 10 0 59931 9900.00000 0 -675796.079 -10830334.261 -23078730.856 10 0 59931 10800.00000 0 2070594.202 -11495438.411 -22673110.626 10 0 59931 11700.00000 0 4686474.943 -12338815.150 -21827019.804 10 0 59931 12600.00000 0 7111031.669 -13326597.578 -20557005.015 10 0 59931 13500.00000 0 9291457.383 -14415270.990 -18887831.977 10 0 59931 14400.00000 0 11184894.501 -15553512.443 -16851998.193 10 0 59931 15300.00000 0 12759960.695 -16684375.388 -14489097.157 10 0 59931 16200.00000 0 13997796.835 -17747727.500 -11845046.566 10 0 59931 17100.00000 0 14892595.168 -18682839.336 -8971195.428 10 0 59931 18000.00000 0 15451587.372 -19431015.093 -5923327.436 10 0 59931 18900.00000 0 15694494.764 -19938155.060 -2760579.784 10 0 59931 19800.00000 0 15652465.235 -20157142.166 455701.720 10 0 59931 20700.00000 0 15366542.805 -20049952.384 3663149.102 10 0 59931 21600.00000 0 14885735.152 -19589400.331 6799577.380 10 0 59931 22500.00000 0 14264761.116 -18760446.548 9804185.312 10 0 59931 23400.00000 0 13561573.357 -17561011.341 12618728.596 10 0 59931 24300.00000 0 12834760.635 -16002260.525 15188643.218 10 0 59931 25200.00000 0 12140938.933 -14108350.382 17464097.603 10 0 59931 26100.00000 0 11532241.047 -11915641.550 19400953.672 10 0 59931 27000.00000 0 11054009.930 -9471413.552 20961618.765 10 0 59931 27900.00000 0 10742792.550 -6832132.124 22115772.511 10 0 59931 28800.00000 0 10624718.470 -4061340.129 22840954.933 10 0 59931 29700.00000 0 10714331.345 -1227258.186 23123004.746 10 0 59931 30600.00000 0 11013922.786 1599806.856 22956339.374 10 0 59931 31500.00000 0 11513397.173 4350139.277 22344071.027 10 0 59931 32400.00000 0 12190673.993 6957267.826 21297956.082 10 0 59931 33300.00000 0 13012611.879 9360485.862 19838177.949 10 0 59931 34200.00000 0 13936416.644 11507134.187 17992966.655 10 0 59931 35100.00000 0 14911475.209 13354552.140 15798061.426 10 0 59931 36000.00000 0 15881539.155 14871615.879 13296025.603 10 0 59931 36900.00000 0 16787166.530 16039799.680 10535426.276 10 0 59931 37800.00000 0 17568319.179 16853715.921 7569893.854 10 0 59931 38700.00000 0 18167005.780 17321111.205 4457079.469 10 0 59931 39600.00000 0 18529858.324 17462318.901 1257530.559 10 0 59931 40500.00000 0 18610532.195 17309191.592 -1966493.095 10 0 59931 41400.00000 0 18371827.096 16903559.048 -5152239.148 10 0 59931 42300.00000 0 17787437.831 16295277.629 -8237693.431 10 0 59931 43200.00000 0 16843259.529 15539954.627 -11162796.641 10 0 59931 44100.00000 0 15538190.885 14696444.883 -13870622.168 10 0 59931 45000.00000 0 13884400.488 13824226.725 -16308491.074 10 0 59931 45900.00000 0 11907044.137 12980769.219 -18429001.811 10 0 59931 46800.00000 0 9643444.399 12219002.875 -20190954.220 10 0 59931 47700.00000 0 7141766.528 11585001.191 -21560149.685 10 0 59931 48600.00000 0 4459245.974 11115971.127 -22510052.149 10 0 59931 49500.00000 0 1660041.383 10838637.114 -23022297.691 10 0 59931 50400.00000 0 -1187197.362 10768086.296 -23087043.395 10 0 59931 51300.00000 0 -4011945.006 10907122.933 -22703149.617 10 0 59931 52200.00000 0 -6744492.292 11246158.350 -21878192.878 10 0 59931 53100.00000 0 -9318601.417 11763640.179 -20628309.891 10 0 59931 54000.00000 0 -11674016.153 12427002.022 -18977876.346 10 0 59931 54900.00000 0 -13758723.353 13194092.878 -16959027.082 10 0 59931 55800.00000 0 -15530873.053 14015025.664 -14611027.275 10 0 59931 56700.00000 0 -16960278.752 14834366.642 -11979506.919 10 0 59931 57600.00000 0 -18029436.935 15593573.424 -9115573.452 10 0 59931 58500.00000 0 -18734024.877 16233578.829 -6074819.714 10 0 59931 59400.00000 0 -19082857.539 16697411.789 -2916246.381 10 0 59931 60300.00000 0 -19097306.861 16932745.007 298880.380 10 0 59931 61200.00000 0 -18810209.068 16894262.108 3508213.901 10 0 59931 62100.00000 0 -18264306.935 16545744.634 6649531.854 10 0 59931 63000.00000 0 -17510293.260 15861790.911 9661937.783 10 0 59931 63900.00000 0 -16604538.236 14829094.248 12487036.193 10 0 59931 64800.00000 0 -15606596.531 13447226.279 15070058.824 10 0 59931 65700.00000 0 -14576598.791 11728891.839 17360920.736 10 0 59931 66600.00000 0 -13572636.974 9699643.746 19315186.187 10 0 59931 67500.00000 0 -12648252.980 7397068.168 20894926.238 10 0 59931 68400.00000 0 -11850135.579 4869473.111 22069451.990 10 0 59931 69300.00000 0 -11216121.956 2174133.108 22815909.694 10 0 59931 70200.00000 0 -10773587.430 -624838.530 23119726.532 10 0 59931 71100.00000 0 -10538290.858 -3458903.214 22974898.475 10 0 59931 72000.00000 0 -10513724.311 -6257697.573 22384114.427 10 0 59931 72900.00000 0 -10690994.764 -8951714.419 21358713.733 10 0 59931 73800.00000 0 -11049243.353 -11474954.038 19918477.108 10 0 59931 74700.00000 0 -11556585.394 -13767436.386 18091254.061 10 0 59931 75600.00000 0 -12171532.430 -15777470.302 15912432.936 10 0 59931 76500.00000 0 -12844837.159 -17463585.466 13424262.777 10 0 59931 77400.00000 0 -13521684.066 -18796046.470 10675039.228 10 0 59931 78300.00000 0 -14144133.515 -19757885.637 7718169.573 10 0 59931 79200.00000 0 -14653715.997 -20345411.184 4611134.673 10 0 59931 80100.00000 0 -14994066.281 -20568169.307 1414368.038 10 0 59931 81000.00000 0 -15113485.188 -20448361.920 -1809925.782 10 0 59931 81900.00000 0 -14967319.365 -20019744.896 -4998989.810 10 0 59931 82800.00000 0 -14520056.952 -19326053.844 -8090745.441 10 0 59931 83700.00000 0 -13747049.050 -18419024.728 -11025010.404 10 0 59931 84600.00000 0 -12635782.719 -17356093.890 -13744679.058 10 0 59931 85500.00000 0 -11186650.540 -16197875.710 -16196840.944 99